| time (UTC) | temp F | wind direction | speed MPH | gust MPH | rain 1hr in | rain 24hr in | rain mn in | humidity % | barometer mb |
| 20260506073327 | 58 | 63 | 4.0 | 5.0 | 0.00 | 0.00 | 0.00 | 77 | 1010.5 |
| 20260506072327 | 58 | 118 | 1.0 | 1.0 | 0.00 | 0.00 | 0.00 | 77 | 1010.6 |
| 20260506071323 | 58 | 20 | 7.0 | 8.0 | 0.00 | 0.00 | 0.00 | 77 | 1010.8 |
| 20260506070322 | 58 | 74 | 3.0 | 3.0 | 0.00 | 0.00 | 0.00 | 77 | 1010.7 |
| 20260506062306 | 59 | 48 | 4.0 | 6.0 | 0.00 | 0.00 | 0.00 | 78 | 1010.6 |
| 20260506061304 | 60 | 147 | 1.0 | 2.0 | 0.00 | 0.00 | 0.00 | 79 | 1010.4 |
| 20260506060300 | 60 | 124 | 1.0 | 2.0 | 0.00 | 0.00 | 0.00 | 79 | 1010.7 |
| 20260506051249 | 62 | 351 | 3.0 | 5.0 | 0.00 | 0.00 | 0.00 | 80 | 1010.4 |
| 20260506050244 | 63 | 90 | 2.0 | 3.0 | 0.00 | 0.00 | 0.00 | 80 | 1009.9 |
| 20260506044243 | 63 | 16 | 5.0 | 11.0 | 0.00 | 0.00 | 0.00 | 80 | 1010.3 |
| 20260506043238 | 64 | 20 | 4.0 | 8.0 | 0.00 | 0.00 | 0.00 | 80 | 1010.0 |
| 20260506042235 | 64 | 203 | 2.0 | 3.0 | 0.00 | 0.00 | 0.00 | 80 | 1009.8 |
| 20260506041230 | 65 | 89 | 2.0 | 3.0 | 0.00 | 0.00 | 0.00 | 79 | 1009.5 |
| 20260506040230 | 65 | 103 | 1.0 | 2.0 | 0.00 | 0.00 | 0.00 | 79 | 1009.8 |
| 20260506035230 | 66 | 113 | 0.0 | 0.0 | 0.00 | 0.00 | 0.00 | 79 | 1009.7 |
| 20260506034229 | 67 | 183 | 2.0 | 3.0 | 0.00 | 0.00 | 0.00 | 79 | 1009.4 |
| 20260506033230 | 68 | 166 | 1.0 | 2.0 | 0.00 | 0.00 | 0.00 | 78 | 1009.3 |
| 20260506032229 | 68 | 154 | 4.0 | 6.0 | 0.00 | 0.00 | 0.00 | 78 | 1009.2 |
| 20260506031229 | 69 | 119 | 3.0 | 5.0 | 0.00 | 0.00 | 0.00 | 77 | 1008.9 |
| 20260506030224 | 69 | 210 | 3.0 | 5.0 | 0.00 | 0.00 | 0.00 | 77 | 1008.9 |
| 20260506025223 | 70 | 50 | 2.0 | 3.0 | 0.00 | 0.00 | 0.00 | 76 | 1008.7 |
| 20260506024223 | 70 | 129 | 1.0 | 1.0 | 0.00 | 0.00 | 0.00 | 76 | 1008.2 |
| 20260506023222 | 71 | 334 | 3.0 | 5.0 | 0.00 | 0.00 | 0.00 | 76 | 1007.8 |
| 20260506022217 | 72 | 38 | 2.0 | 3.0 | 0.00 | 0.00 | 0.00 | 76 | 1007.7 |
| 20260506021217 | 73 | 26 | 2.0 | 3.0 | 0.00 | 0.00 | 0.00 | 75 | 1007.0 |
| 20260506020212 | 73 | 158 | 0.0 | 1.0 | 0.00 | 0.00 | 0.00 | 74 | 1007.3 |
| 20260506015213 | 74 | 236 | 1.0 | 2.0 | 0.00 | 0.00 | 0.00 | 74 | 1007.1 |
| 20260506014211 | 74 | 323 | 5.0 | 6.0 | 0.00 | 0.00 | 0.00 | 74 | 1007.0 |
| 20260506013206 | 74 | 190 | 3.0 | 3.0 | 0.00 | 0.00 | 0.00 | 72 | 1006.9 |
| 20260506012205 | 74 | 97 | 2.0 | 3.0 | 0.00 | 0.00 | 0.00 | 72 | 1006.9 |
| 20260506011204 | 75 | 306 | 4.0 | 5.0 | 0.00 | 0.00 | 0.00 | 72 | 1006.5 |
| 20260506010159 | 75 | 136 | 2.0 | 3.0 | 0.00 | 0.00 | 0.00 | 72 | 1006.1 |
| 20260506005159 | 76 | 24 | 3.0 | 5.0 | 0.00 | 0.00 | 0.00 | 71 | 1006.4 |
| 20260506004159 | 77 | 200 | 2.0 | 3.0 | 0.00 | 0.00 | 0.00 | 71 | 1006.1 |
| 20260506003157 | 78 | 119 | 1.0 | 2.0 | 0.00 | 0.00 | 0.00 | 69 | 1006.1 |
| 20260506002154 | 79 | 322 | 6.0 | 7.0 | 0.00 | 0.00 | 0.00 | 68 | 1006.3 |
| 20260506001154 | 80 | 38 | 4.0 | 7.0 | 0.00 | 0.00 | 0.00 | 67 | 1005.8 |
| 20260506000148 | 80 | 336 | 5.0 | 7.0 | 0.00 | 0.00 | 0.00 | 65 | 1005.3 |
| 20260505235149 | 82 | 61 | 3.0 | 3.0 | 0.00 | 0.00 | 0.00 | 62 | 1005.0 |
| 20260505234148 | 82 | 249 | 4.0 | 5.0 | 0.00 | 0.00 | 0.00 | 65 | 1005.3 |
| 20260505233148 | 83 | 212 | 3.0 | 5.0 | 0.00 | 0.00 | 0.00 | 73 | 1004.8 |
| 20260505232143 | 84 | 183 | 5.0 | 7.0 | 0.00 | 0.00 | 0.00 | 72 | 1004.8 |
| 20260505231139 | 84 | 146 | 4.0 | 6.0 | 0.00 | 0.00 | 0.00 | 72 | 1004.6 |
| 20260505230138 | 84 | 138 | 2.0 | 3.0 | 0.00 | 0.00 | 0.00 | 71 | 1004.4 |
| 20260505225137 | 85 | 155 | 5.0 | 7.0 | 0.00 | 0.00 | 0.00 | 71 | 1004.6 |
| 20260505224137 | 85 | 191 | 5.0 | 7.0 | 0.00 | 0.00 | 0.00 | 69 | 1004.6 |
| 20260505223136 | 86 | 175 | 5.0 | 9.0 | 0.00 | 0.00 | 0.00 | 68 | 1004.2 |
| 20260505222135 | 86 | 164 | 5.0 | 6.0 | 0.00 | 0.00 | 0.00 | 68 | 1004.4 |
| 20260505221134 | 88 | 154 | 2.0 | 3.0 | 0.00 | 0.00 | 0.00 | 65 | 1004.3 |
| 20260505220129 | 87 | 162 | 5.0 | 6.0 | 0.00 | 0.00 | 0.00 | 65 | 1004.4 |
| 20260505215125 | 87 | 171 | 2.0 | 2.0 | 0.00 | 0.00 | 0.00 | 67 | 1004.5 |
| 20260505214125 | 88 | 167 | 4.0 | 5.0 | 0.00 | 0.00 | 0.00 | 62 | 1004.6 |
| 20260505213124 | 87 | 219 | 6.0 | 7.0 | 0.00 | 0.00 | 0.00 | 58 | 1004.6 |
| 20260505212124 | 88 | 168 | 3.0 | 3.0 | 0.00 | 0.00 | 0.00 | 64 | 1004.8 |
| 20260505211124 | 88 | 209 | 3.0 | 5.0 | 0.00 | 0.00 | 0.00 | 62 | 1004.6 |
| 20260505210123 | 88 | 199 | 6.0 | 7.0 | 0.00 | 0.00 | 0.00 | 61 | 1004.9 |
| 20260505205119 | 87 | 220 | 7.0 | 8.0 | 0.00 | 0.00 | 0.00 | 63 | 1004.8 |
| 20260505204113 | 87 | 165 | 2.0 | 2.0 | 0.00 | 0.00 | 0.00 | 65 | 1005.4 |
| 20260505203113 | 86 | 217 | 7.0 | 8.0 | 0.00 | 0.00 | 0.00 | 66 | 1005.3 |
| 20260505202110 | 86 | 229 | 8.0 | 10.0 | 0.00 | 0.00 | 0.00 | 64 | 1005.3 |
| 20260505201105 | 86 | 205 | 6.0 | 7.0 | 0.00 | 0.00 | 0.00 | 68 | 1005.4 |
| 20260505200105 | 86 | 214 | 5.0 | 10.0 | 0.00 | 0.00 | 0.00 | 67 | 1005.4 |
| 20260505195105 | 85 | 171 | 4.0 | 6.0 | 0.00 | 0.00 | 0.00 | 69 | 1005.4 |
| 20260505194103 | 84 | 206 | 7.0 | 8.0 | 0.00 | 0.00 | 0.00 | 68 | 1005.6 |
| 20260505193104 | 85 | 231 | 3.0 | 5.0 | 0.00 | 0.00 | 0.00 | 68 | 1005.6 |
| 20260505192059 | 84 | 226 | 4.0 | 5.0 | 0.00 | 0.00 | 0.00 | 70 | 1005.4 |
| 20260505191055 | 83 | 211 | 7.0 | 9.0 | 0.00 | 0.00 | 0.00 | 69 | 1005.5 |
| 20260505190052 | 83 | 211 | 6.0 | 10.0 | 0.00 | 0.00 | 0.00 | 69 | 1005.6 |
| 20260505185051 | 83 | 204 | 5.0 | 9.0 | 0.00 | 0.00 | 0.00 | 70 | 1005.6 |
| 20260505184050 | 82 | 165 | 5.0 | 9.0 | 0.00 | 0.00 | 0.00 | 71 | 1005.7 |
| 20260505183045 | 82 | 187 | 5.0 | 8.0 | 0.00 | 0.00 | 0.00 | 72 | 1005.6 |
| 20260505182043 | 82 | 211 | 8.0 | 10.0 | 0.00 | 0.00 | 0.00 | 70 | 1006.0 |
| 20260505181044 | 82 | 186 | 8.0 | 9.0 | 0.00 | 0.00 | 0.00 | 70 | 1005.8 |
| 20260505180043 | 83 | 157 | 4.0 | 6.0 | 0.00 | 0.00 | 0.00 | 70 | 1005.8 |
| 20260505175040 | 81 | 191 | 3.0 | 5.0 | 0.00 | 0.00 | 0.00 | 73 | 1005.8 |
| 20260505174039 | 81 | 184 | 5.0 | 7.0 | 0.00 | 0.00 | 0.00 | 72 | 1005.9 |
| 20260505173039 | 81 | 196 | 6.0 | 8.0 | 0.00 | 0.00 | 0.00 | 72 | 1006.0 |
| 20260505172038 | 81 | 170 | 6.0 | 8.0 | 0.00 | 0.00 | 0.00 | 73 | 1006.0 |
| 20260505171036 | 81 | 215 | 3.0 | 3.0 | 0.00 | 0.00 | 0.00 | 73 | 1006.2 |
| 20260505170035 | 81 | 200 | 9.0 | 11.0 | 0.00 | 0.00 | 0.00 | 71 | 1006.1 |
| 20260505165032 | 80 | 232 | 10.0 | 11.0 | 0.00 | 0.00 | 0.00 | 73 | 1006.1 |
| 20260505164032 | 80 | 174 | 7.0 | 10.0 | 0.00 | 0.00 | 0.00 | 74 | 1006.1 |
| 20260505163027 | 79 | 222 | 6.0 | 9.0 | 0.00 | 0.00 | 0.00 | 76 | 1005.9 |
| 20260505162023 | 79 | 164 | 8.0 | 13.0 | 0.00 | 0.00 | 0.00 | 76 | 1006.0 |
| 20260505161023 | 78 | 173 | 7.0 | 11.0 | 0.00 | 0.00 | 0.00 | 76 | 1005.7 |
| 20260505153015 | 77 | 123 | 4.0 | 7.0 | 0.00 | 0.00 | 0.00 | 79 | 1005.7 |
| 20260505152013 | 76 | 160 | 3.0 | 5.0 | 0.00 | 0.00 | 0.00 | 80 | 1005.8 |
| 20260505151011 | 75 | 190 | 10.0 | 11.0 | 0.00 | 0.00 | 0.00 | 81 | 1006.0 |
| 20260505124949 | 71 | 196 | 4.0 | 6.0 | 0.00 | 0.00 | 0.00 | 86 | 1005.8 |
| 20260505123947 | 71 | 165 | 5.0 | 6.0 | 0.00 | 0.00 | 0.00 | 86 | 1005.6 |
| 20260505122946 | 71 | 190 | 4.0 | 7.0 | 0.00 | 0.00 | 0.00 | 86 | 1005.3 |
| 20260505121946 | 71 | 174 | 6.0 | 10.0 | 0.00 | 0.00 | 0.00 | 86 | 1005.5 |
| 20260505120944 | 71 | 202 | 5.0 | 8.0 | 0.00 | 0.00 | 0.00 | 86 | 1004.9 |
| 20260505115940 | 71 | 196 | 7.0 | 10.0 | 0.00 | 0.00 | 0.00 | 86 | 1005.0 |
| 20260505114935 | 71 | 232 | 2.0 | 5.0 | 0.00 | 0.00 | 0.00 | 86 | 1005.0 |
| 20260505113934 | 71 | 188 | 5.0 | 6.0 | 0.00 | 0.00 | 0.00 | 86 | 1005.0 |
| 20260505112932 | 71 | 159 | 8.0 | 10.0 | 0.00 | 0.00 | 0.00 | 86 | 1004.9 |
| 20260505111931 | 71 | 193 | 3.0 | 5.0 | 0.00 | 0.00 | 0.00 | 86 | 1005.1 |
| 20260505110929 | 71 | 157 | 7.0 | 9.0 | 0.00 | 0.00 | 0.00 | 86 | 1004.8 |
| 20260505101926 | 71 | 166 | 4.0 | 7.0 | 0.00 | 0.00 | 0.00 | 86 | 1004.9 |
| 20260505100922 | 71 | 229 | 5.0 | 6.0 | 0.00 | 0.00 | 0.00 | 86 | 1004.8 |
| 20260505095921 | 71 | 179 | 5.0 | 7.0 | 0.00 | 0.00 | 0.00 | 85 | 1005.0 |
| 20260505094920 | 71 | 214 | 10.0 | 16.0 | 0.00 | 0.00 | 0.00 | 86 | 1005.1 |
| 20260505093919 | 71 | 202 | 12.0 | 17.0 | 0.00 | 0.00 | 0.00 | 86 | 1005.1 |
| 20260505092919 | 71 | 208 | 8.0 | 11.0 | 0.00 | 0.00 | 0.00 | 86 | 1005.3 |
| 20260505091914 | 71 | 221 | 8.0 | 10.0 | 0.00 | 0.00 | 0.00 | 86 | 1005.3 |
| 20260505090909 | 71 | 217 | 7.0 | 10.0 | 0.00 | 0.00 | 0.00 | 86 | 1005.3 |
| 20260505085904 | 71 | 166 | 5.0 | 8.0 | 0.00 | 0.00 | 0.00 | 86 | 1005.0 |
| 20260505084900 | 71 | 182 | 5.0 | 6.0 | 0.00 | 0.00 | 0.00 | 86 | 1005.1 |
| 20260505083856 | 71 | 177 | 6.0 | 7.0 | 0.00 | 0.00 | 0.00 | 86 | 1005.0 |
| 20260505082855 | 71 | 163 | 7.0 | 10.0 | 0.00 | 0.00 | 0.00 | 86 | 1005.0 |
| 20260505081854 | 71 | 95 | 7.0 | 13.0 | 0.00 | 0.00 | 0.00 | 86 | 1005.4 |
| 20260505080853 | 71 | 226 | 5.0 | 10.0 | 0.00 | 0.00 | 0.00 | 85 | 1005.4 |